• In Hungary
  • List of Countries
  • For 7 days
  • Water Temperature
  • Satellite Maps
  • Weather Map
  • News
  • Weather Widgets
  • user-avatar
    Login

    Hourly Weather Princeton

    Today, 22 October, Sunday

    Time Temperature Precipitation Wind Pressure Humidity
    00:00 +16°C° 0 mm 1 mps 767 mmHg 49%
    01:00 +15°C° 0 mm 1 mps 767 mmHg 50%
    02:00 +14°C° 0 mm 0 mps 767 mmHg 51%
    03:00 +14°C° 0 mm 0 mps 767 mmHg 52%
    04:00 +13°C° 0 mm 0 mps 767 mmHg 52%
    05:00 +13°C° 0 mm 0 mps 767 mmHg 53%
    06:00 +13°C° 0 mm 0 mps 768 mmHg 54%
    07:00 +13°C° 0 mm 0 mps 768 mmHg 54%
    08:00 +16°C° 0 mm 0 mps 768 mmHg 49%
    09:00 +20°C° 0 mm 1 mps 768 mmHg 44%
    10:00 +22°C° 0 mm 1 mps 768 mmHg 39%
    11:00 +23°C° 0 mm 1 mps 768 mmHg 38%
    12:00 +25°C° 0 mm 2 mps 768 mmHg 37%
    13:00 +26°C° 0 mm 2 mps 767 mmHg 36%
    14:00 +25°C° 0 mm 3 mps 767 mmHg 41%
    15:00 +25°C° 0 mm 3 mps 766 mmHg 46%
    16:00 +24°C° 0 mm 3 mps 766 mmHg 50%
    17:00 +22°C° 0 mm 3 mps 766 mmHg 57%
    18:00 +20°C° 0 mm 3 mps 767 mmHg 64%
    19:00 +19°C° 0 mm 2 mps 767 mmHg 71%
    20:00 +18°C° 0 mm 2 mps 767 mmHg 76%
    21:00 +18°C° 0 mm 2 mps 767 mmHg 80%
    22:00 +17°C° 0 mm 2 mps 767 mmHg 85%
    23:00 +17°C° 0 mm 2 mps 767 mmHg 87%

    Tomorrow, 23 October, Monday

    Time Temperature Precipitation Wind Pressure Humidity
    00:00 +17°C° 0 mm 2 mps 766 mmHg 89%
    01:00 +17°C° 0 mm 2 mps 766 mmHg 91%
    02:00 +17°C° 0 mm 2 mps 766 mmHg 91%
    03:00 +18°C° 0 mm 1 mps 766 mmHg 92%
    04:00 +18°C° 0 mm 1 mps 765 mmHg 93%
    05:00 +18°C° 0 mm 1 mps 765 mmHg 92%
    06:00 +18°C° 0 mm 1 mps 765 mmHg 91%
    07:00 +19°C° 0 mm 1 mps 765 mmHg 90%
    08:00 +19°C° 0 mm 2 mps 765 mmHg 83%
    09:00 +21°C° 0 mm 3 mps 764 mmHg 77%
    10:00 +22°C° 0 mm 3 mps 764 mmHg 70%
    11:00 +22°C° 0.1 mm 3 mps 763 mmHg 69%
    12:00 +23°C° 0.1 mm 4 mps 763 mmHg 67%
    13:00 +23°C° 0.1 mm 4 mps 762 mmHg 65%
    14:00 +23°C° 0.1 mm 4 mps 761 mmHg 69%
    15:00 +22°C° 0.1 mm 4 mps 761 mmHg 72%
    16:00 +22°C° 0.1 mm 4 mps 760 mmHg 76%
    17:00 +21°C° 0 mm 4 mps 760 mmHg 78%
    18:00 +21°C° 0 mm 4 mps 759 mmHg 81%
    19:00 +20°C° 0 mm 4 mps 759 mmHg 83%
    20:00 +20°C° 0 mm 4 mps 758 mmHg 83%
    21:00 +20°C° 0 mm 5 mps 758 mmHg 84%
    22:00 +21°C° 0 mm 5 mps 757 mmHg 84%
    23:00 +21°C° 0.1 mm 5 mps 756 mmHg 83%

    Day after tomorrow, 24 October, Tuesday

    Time Temperature Precipitation Wind Pressure Humidity
    00:00 +21°C° 0.1 mm 6 mps 756 mmHg 83%
    01:00 +21°C° 0.1 mm 6 mps 755 mmHg 82%
    02:00 +21°C° 0.2 mm 7 mps 754 mmHg 82%
    03:00 +22°C° 0.2 mm 7 mps 753 mmHg 82%
    04:00 +22°C° 0.2 mm 8 mps 753 mmHg 82%
    05:00 +22°C° 3.9 mm 7 mps 753 mmHg 84%
    06:00 +21°C° 3.9 mm 7 mps 753 mmHg 86%
    07:00 +21°C° 3.9 mm 6 mps 753 mmHg 88%
    08:00 +21°C° 1 mm 5 mps 753 mmHg 84%
    09:00 +22°C° 1 mm 4 mps 753 mmHg 79%
    10:00 +22°C° 1 mm 3 mps 753 mmHg 75%
    11:00 +22°C° 0.6 mm 3 mps 752 mmHg 75%
    12:00 +22°C° 0.6 mm 3 mps 752 mmHg 74%
    13:00 +23°C° 0.6 mm 4 mps 751 mmHg 74%
    14:00 +22°C° 0.6 mm 4 mps 751 mmHg 76%
    15:00 +22°C° 0.6 mm 4 mps 751 mmHg 78%
    16:00 +22°C° 0.6 mm 4 mps 751 mmHg 80%
    17:00 +21°C° 0.8 mm 4 mps 751 mmHg 83%
    18:00 +21°C° 0.8 mm 3 mps 751 mmHg 87%
    19:00 +20°C° 0.8 mm 3 mps 751 mmHg 90%
    20:00 +20°C° 0.2 mm 3 mps 750 mmHg 90%
    21:00 +20°C° 0.2 mm 2 mps 750 mmHg 91%
    22:00 +20°C° 0.2 mm 2 mps 750 mmHg 91%
    23:00 +19°C° 0.1 mm 2 mps 750 mmHg 90%

    25 October, Wednesday

    Time Temperature Precipitation Wind Pressure Humidity
    00:00 +19°C° 0.1 mm 2 mps 749 mmHg 90%
    01:00 +19°C° 0.1 mm 1 mps 749 mmHg 89%
    02:00 +19°C° 0 mm 1 mps 749 mmHg 88%
    03:00 +18°C° 0 mm 1 mps 749 mmHg 87%
    04:00 +18°C° 0 mm 1 mps 748 mmHg 86%
    05:00 +16°C° 0 mm 1 mps 748 mmHg 85%
    06:00 +16°C° 0 mm 2 mps 749 mmHg 84%
    07:00 +16°C° 0 mm 2 mps 749 mmHg 83%
    08:00 +17°C° 0 mm 2 mps 749 mmHg 78%
    09:00 +17°C° 0 mm 3 mps 749 mmHg 73%
    10:00 +18°C° 0 mm 3 mps 748 mmHg 67%
    11:00 +19°C° 0 mm 3 mps 748 mmHg 63%
    12:00 +19°C° 0 mm 3 mps 748 mmHg 58%
    13:00 +20°C° 0 mm 3 mps 747 mmHg 54%
    14:00 +20°C° 0 mm 3 mps 747 mmHg 53%
    15:00 +19°C° 0 mm 3 mps 747 mmHg 52%
    16:00 +19°C° 0 mm 3 mps 747 mmHg 51%
    17:00 +18°C° 0 mm 3 mps 748 mmHg 55%
    18:00 +16°C° 0 mm 3 mps 748 mmHg 59%
    19:00 +14°C° 0 mm 4 mps 748 mmHg 63%
    20:00 +13°C° 0 mm 4 mps 748 mmHg 62%
    21:00 +13°C° 0 mm 4 mps 748 mmHg 62%
    22:00 +12°C° 0 mm 4 mps 748 mmHg 61%
    23:00 +12°C° 0 mm 3 mps 748 mmHg 62%

    26 October, Thursday

    Time Temperature Precipitation Wind Pressure Humidity
    00:00 +11°C° 0 mm 3 mps 748 mmHg 63%
    01:00 +11°C° 0 mm 3 mps 749 mmHg 63%
    02:00 +10°C° 0 mm 3 mps 749 mmHg 64%
    03:00 +9°C° 0 mm 3 mps 749 mmHg 65%
    04:00 +9°C° 0 mm 3 mps 749 mmHg 65%
    05:00 +8°C° 0 mm 3 mps 750 mmHg 66%
    06:00 +8°C° 0 mm 3 mps 750 mmHg 67%
    07:00 +8°C° 0 mm 3 mps 751 mmHg 68%
    08:00 +8°C° 0 mm 4 mps 751 mmHg 63%
    09:00 +11°C° 0 mm 4 mps 752 mmHg 58%
    10:00 +12°C° 0 mm 5 mps 752 mmHg 54%
    11:00 +13°C° 0 mm 5 mps 752 mmHg 51%
    12:00 +14°C° 0 mm 5 mps 752 mmHg 48%
    13:00 +15°C° 0 mm 5 mps 752 mmHg 45%
    14:00 +15°C° 0 mm 5 mps 753 mmHg 47%
    15:00 +14°C° 0 mm 5 mps 753 mmHg 48%
    16:00 +14°C° 0 mm 5 mps 754 mmHg 50%
    17:00 +13°C° 0 mm 5 mps 754 mmHg 53%
    18:00 +12°C° 0 mm 5 mps 755 mmHg 55%
    19:00 +12°C° 0 mm 5 mps 756 mmHg 57%
    20:00 +11°C° 0 mm 4 mps 756 mmHg 59%
    21:00 +11°C° 0 mm 4 mps 757 mmHg 61%
    22:00 +10°C° 0 mm 4 mps 757 mmHg 63%
    23:00 +10°C° 0 mm 3 mps 757 mmHg 65%

    27 October, Friday

    Time Temperature Precipitation Wind Pressure Humidity
    00:00 +9°C° 0 mm 3 mps 758 mmHg 67%
    01:00 +9°C° 0 mm 3 mps 758 mmHg 69%
    02:00 +9°C° 0 mm 2 mps 759 mmHg 70%
    03:00 +8°C° 0 mm 2 mps 759 mmHg 72%
    04:00 +8°C° 0 mm 2 mps 759 mmHg 73%
    05:00 +9°C° 0 mm 1 mps 760 mmHg 72%
    06:00 +9°C° 0 mm 1 mps 760 mmHg 72%
    07:00 +9°C° 0 mm 1 mps 761 mmHg 71%
    08:00 +10°C° 0 mm 2 mps 761 mmHg 63%
    09:00 +13°C° 0 mm 2 mps 761 mmHg 55%
    10:00 +14°C° 0 mm 3 mps 762 mmHg 47%
    11:00 +16°C° 0 mm 3 mps 762 mmHg 45%
    12:00 +18°C° 0 mm 4 mps 761 mmHg 42%
    13:00 +19°C° 0 mm 4 mps 761 mmHg 40%
    14:00 +19°C° 0 mm 4 mps 761 mmHg 42%
    15:00 +18°C° 0 mm 3 mps 761 mmHg 44%
    16:00 +18°C° 0 mm 3 mps 761 mmHg 47%
    17:00 +17°C° 0 mm 3 mps 762 mmHg 51%
    18:00 +16°C° 0 mm 3 mps 762 mmHg 55%
    19:00 +13°C° 0 mm 3 mps 762 mmHg 60%
    20:00 +13°C° 0 mm 3 mps 763 mmHg 63%
    21:00 +13°C° 0 mm 3 mps 763 mmHg 65%
    22:00 +12°C° 0 mm 3 mps 763 mmHg 68%
    23:00 +12°C° 0 mm 3 mps 763 mmHg 70%
    Show more